| time (UTC) | temp F | wind direction | speed MPH | gust MPH | rain 1hr in | rain 24hr in | rain mn in | humidity % | barometer mb |
| 20260510095602 | 47 | 59 | 0.0 | 0.0 | 0.00 | 0.00 | 0.00 | 63 | 1018.4 |
| 20260510095104 | 47 | 59 | 0.0 | 0.0 | 0.00 | 0.00 | 0.00 | 63 | 1018.3 |
| 20260510094603 | 47 | 59 | 0.0 | 0.0 | 0.00 | 0.00 | 0.00 | 64 | 1018.1 |
| 20260510093605 | 47 | 59 | 0.0 | 0.0 | 0.00 | 0.00 | 0.00 | 63 | 1018.3 |
| 20260510093107 | 47 | 59 | 0.0 | 0.0 | 0.00 | 0.00 | 0.00 | 63 | 1018.1 |
| 20260510092606 | 47 | 59 | 0.0 | 0.0 | 0.00 | 0.00 | 0.00 | 63 | 1018.3 |
| 20260510092108 | 47 | 59 | 0.0 | 0.0 | 0.00 | 0.00 | 0.00 | 66 | 1018.1 |
| 20260510091602 | 47 | 59 | 0.0 | 0.0 | 0.00 | 0.00 | 0.00 | 66 | 1018.1 |
| 20260510091103 | 47 | 59 | 0.0 | 0.0 | 0.00 | 0.00 | 0.00 | 66 | 1018.1 |
| 20260510090603 | 48 | 59 | 0.0 | 0.0 | 0.00 | 0.00 | 0.00 | 65 | 1018.0 |
| 20260510085602 | 48 | 59 | 0.0 | 0.0 | 0.00 | 0.00 | 0.00 | 67 | 1018.1 |
| 20260510085103 | 48 | 59 | 0.0 | 0.0 | 0.00 | 0.00 | 0.00 | 67 | 1018.1 |
| 20260510083602 | 49 | 59 | 0.0 | 0.0 | 0.00 | 0.00 | 0.00 | 65 | 1018.3 |
| 20260510083103 | 49 | 59 | 0.0 | 0.0 | 0.00 | 0.00 | 0.00 | 66 | 1018.1 |
| 20260510082105 | 50 | 59 | 0.0 | 0.0 | 0.00 | 0.00 | 0.00 | 66 | 1018.1 |
| 20260510081602 | 50 | 59 | 0.0 | 0.0 | 0.00 | 0.00 | 0.00 | 66 | 1018.1 |
| 20260510081103 | 50 | 59 | 0.0 | 0.0 | 0.00 | 0.00 | 0.00 | 66 | 1018.1 |
| 20260510080603 | 50 | 59 | 0.0 | 0.0 | 0.00 | 0.00 | 0.00 | 65 | 1018.0 |
| 20260510080105 | 50 | 59 | 0.0 | 0.0 | 0.00 | 0.00 | 0.00 | 63 | 1018.0 |
| 20260510075605 | 50 | 59 | 0.0 | 0.0 | 0.00 | 0.00 | 0.00 | 62 | 1018.1 |
| 20260510075107 | 50 | 59 | 0.0 | 0.0 | 0.00 | 0.00 | 0.00 | 60 | 1018.3 |
| 20260510074605 | 50 | 59 | 0.0 | 0.0 | 0.00 | 0.00 | 0.00 | 61 | 1018.3 |
| 20260510074107 | 50 | 59 | 0.0 | 0.0 | 0.00 | 0.00 | 0.00 | 61 | 1018.1 |
| 20260510073604 | 51 | 59 | 0.0 | 0.0 | 0.00 | 0.00 | 0.00 | 61 | 1018.1 |
| 20260510072603 | 51 | 0 | 0.0 | 0.0 | 0.00 | 0.00 | 0.00 | 61 | 1018.1 |
| 20260510072103 | 51 | 0 | 0.0 | 0.0 | 0.00 | 0.00 | 0.00 | 60 | 1018.1 |
| 20260510071604 | 51 | 0 | 0.0 | 0.0 | 0.00 | 0.00 | 0.00 | 60 | 1018.0 |
| 20260510071101 | 51 | 0 | 0.0 | 0.0 | 0.00 | 0.00 | 0.00 | 60 | 1018.1 |
| 20260510070603 | 51 | 0 | 0.0 | 0.0 | 0.00 | 0.00 | 0.00 | 60 | 1018.0 |
| 20260510065602 | 51 | 0 | 0.0 | 0.0 | 0.00 | 0.00 | 0.00 | 59 | 1018.0 |
| 20260510065100 | 52 | 0 | 0.0 | 0.0 | 0.00 | 0.00 | 0.00 | 59 | 1018.0 |
| 20260510064100 | 52 | 0 | 0.0 | 0.0 | 0.00 | 0.00 | 0.00 | 59 | 1018.0 |
| 20260510063601 | 52 | 0 | 0.0 | 0.0 | 0.00 | 0.00 | 0.00 | 56 | 1018.1 |
| 20260510063100 | 52 | 0 | 0.0 | 0.0 | 0.00 | 0.00 | 0.00 | 57 | 1018.3 |
| 20260510062555 | 52 | 0 | 0.0 | 0.0 | 0.00 | 0.00 | 0.00 | 57 | 1018.1 |
| 20260510062055 | 53 | 0 | 0.0 | 0.0 | 0.00 | 0.00 | 0.00 | 57 | 1018.1 |
| 20260510061554 | 53 | 0 | 0.0 | 0.0 | 0.00 | 0.00 | 0.00 | 56 | 1018.3 |
| 20260510060556 | 53 | 0 | 0.0 | 0.0 | 0.00 | 0.00 | 0.00 | 57 | 1018.0 |
| 20260510055559 | 54 | 0 | 1.0 | 3.0 | 0.00 | 0.00 | 0.00 | 54 | 1018.0 |
| 20260510055054 | 54 | 0 | 1.0 | 2.0 | 0.00 | 0.00 | 0.00 | 55 | 1018.0 |
| 20260510054555 | 54 | 0 | 0.0 | 1.0 | 0.00 | 0.00 | 0.00 | 53 | 1017.9 |
| 20260510054050 | 55 | 0 | 0.0 | 1.0 | 0.00 | 0.00 | 0.00 | 53 | 1018.0 |
| 20260510053552 | 55 | 0 | 0.0 | 2.0 | 0.00 | 0.00 | 0.00 | 54 | 1017.9 |
| 20260510053052 | 55 | 0 | 1.0 | 3.0 | 0.00 | 0.00 | 0.00 | 53 | 1017.9 |
| 20260510051550 | 55 | 0 | 0.0 | 1.0 | 0.00 | 0.00 | 0.00 | 49 | 1017.9 |
| 20260510051050 | 56 | 0 | 0.0 | 1.0 | 0.00 | 0.00 | 0.00 | 47 | 1017.9 |
| 20260510050552 | 56 | 0 | 0.0 | 2.0 | 0.00 | 0.00 | 0.00 | 46 | 1017.9 |
| 20260510050050 | 56 | 329 | 1.0 | 2.0 | 0.00 | 0.00 | 0.00 | 45 | 1017.8 |
| 20260510045551 | 57 | 329 | 1.0 | 4.0 | 0.00 | 0.00 | 0.00 | 48 | 1018.0 |
| 20260510045051 | 58 | 328 | 1.0 | 4.0 | 0.00 | 0.00 | 0.00 | 44 | 1017.8 |
| 20260510044052 | 59 | 229 | 0.0 | 1.0 | 0.00 | 0.00 | 0.00 | 36 | 1017.8 |
| 20260510043551 | 59 | 228 | 0.0 | 1.0 | 0.00 | 0.00 | 0.00 | 39 | 1017.7 |
| 20260510043052 | 60 | 228 | 0.0 | 1.0 | 0.00 | 0.00 | 0.00 | 36 | 1017.7 |
| 20260510042553 | 60 | 229 | 1.0 | 2.0 | 0.00 | 0.00 | 0.00 | 36 | 1017.7 |
| 20260510042054 | 60 | 229 | 1.0 | 3.0 | 0.00 | 0.00 | 0.00 | 34 | 1017.7 |
| 20260510041547 | 60 | 228 | 2.0 | 3.0 | 0.00 | 0.00 | 0.00 | 34 | 1017.6 |
| 20260510041043 | 60 | 227 | 2.0 | 4.0 | 0.00 | 0.00 | 0.00 | 33 | 1017.6 |
| 20260510040542 | 61 | 228 | 2.0 | 4.0 | 0.00 | 0.00 | 0.00 | 34 | 1017.5 |
| 20260510040042 | 61 | 227 | 1.0 | 3.0 | 0.00 | 0.00 | 0.00 | 34 | 1017.5 |
| 20260510035538 | 61 | 226 | 1.0 | 4.0 | 0.00 | 0.00 | 0.00 | 34 | 1017.5 |
| 20260510034538 | 61 | 219 | 1.0 | 4.0 | 0.00 | 0.00 | 0.00 | 34 | 1017.3 |
| 20260510034038 | 61 | 209 | 1.0 | 3.0 | 0.00 | 0.00 | 0.00 | 34 | 1017.3 |
| 20260510033536 | 62 | 209 | 3.0 | 7.0 | 0.00 | 0.00 | 0.00 | 34 | 1017.2 |
| 20260510033037 | 62 | 221 | 3.0 | 7.0 | 0.00 | 0.00 | 0.00 | 34 | 1017.2 |
| 20260510032535 | 62 | 215 | 1.0 | 5.0 | 0.00 | 0.00 | 0.00 | 35 | 1017.1 |
| 20260510031533 | 62 | 225 | 2.0 | 4.0 | 0.00 | 0.00 | 0.00 | 34 | 1017.1 |
| 20260510031035 | 62 | 224 | 2.0 | 5.0 | 0.00 | 0.00 | 0.00 | 35 | 1017.1 |
| 20260510030532 | 62 | 227 | 2.0 | 5.0 | 0.00 | 0.00 | 0.00 | 36 | 1016.9 |
| 20260510030031 | 63 | 209 | 2.0 | 5.0 | 0.00 | 0.00 | 0.00 | 35 | 1016.8 |
| 20260510024531 | 64 | 222 | 1.0 | 3.0 | 0.00 | 0.00 | 0.00 | 34 | 1016.8 |
| 20260510024030 | 64 | 226 | 1.0 | 3.0 | 0.00 | 0.00 | 0.00 | 33 | 1016.9 |
| 20260510023531 | 64 | 226 | 1.0 | 3.0 | 0.00 | 0.00 | 0.00 | 33 | 1016.8 |
| 20260510022528 | 65 | 227 | 1.0 | 2.0 | 0.00 | 0.00 | 0.00 | 33 | 1016.8 |
| 20260510022026 | 65 | 227 | 1.0 | 3.0 | 0.00 | 0.00 | 0.00 | 30 | 1016.9 |
| 20260510021526 | 66 | 227 | 1.0 | 3.0 | 0.00 | 0.00 | 0.00 | 29 | 1016.8 |
| 20260510021027 | 66 | 226 | 1.0 | 3.0 | 0.00 | 0.00 | 0.00 | 29 | 1016.9 |
| 20260510020527 | 66 | 226 | 1.0 | 3.0 | 0.00 | 0.00 | 0.00 | 29 | 1016.8 |
| 20260510020024 | 67 | 198 | 0.0 | 3.0 | 0.00 | 0.00 | 0.00 | 28 | 1016.8 |
| 20260510015524 | 67 | 200 | 0.0 | 1.0 | 0.00 | 0.00 | 0.00 | 29 | 1016.7 |
| 20260510015024 | 67 | 186 | 0.0 | 3.0 | 0.00 | 0.00 | 0.00 | 30 | 1016.8 |
| 20260510014023 | 68 | 185 | 0.0 | 3.0 | 0.00 | 0.00 | 0.00 | 30 | 1016.8 |
| 20260510013522 | 69 | 184 | 0.0 | 1.0 | 0.00 | 0.00 | 0.00 | 31 | 1016.9 |
| 20260510013022 | 68 | 184 | 0.0 | 1.0 | 0.00 | 0.00 | 0.00 | 30 | 1016.9 |
| 20260510012522 | 68 | 184 | 0.0 | 2.0 | 0.00 | 0.00 | 0.00 | 30 | 1016.9 |
| 20260510012019 | 69 | 184 | 1.0 | 3.0 | 0.00 | 0.00 | 0.00 | 30 | 1016.9 |
| 20260510011519 | 69 | 184 | 1.0 | 3.0 | 0.00 | 0.00 | 0.00 | 28 | 1016.9 |
| 20260510010006 | 69 | 186 | 2.0 | 4.0 | 0.00 | 0.00 | 0.00 | 27 | 1016.8 |
| 20260510005505 | 69 | 223 | 1.0 | 4.0 | 0.00 | 0.00 | 0.00 | 25 | 1016.8 |
| 20260510004504 | 69 | 165 | 2.0 | 7.0 | 0.00 | 0.00 | 0.00 | 26 | 1016.8 |
| 20260510003505 | 69 | 192 | 2.0 | 8.0 | 0.00 | 0.00 | 0.00 | 26 | 1016.6 |
| 20260510003005 | 70 | 204 | 2.0 | 8.0 | 0.00 | 0.00 | 0.00 | 23 | 1016.7 |
| 20260510002503 | 70 | 200 | 2.0 | 6.0 | 0.00 | 0.00 | 0.00 | 27 | 1016.6 |
| 20260510001506 | 69 | 182 | 2.0 | 6.0 | 0.00 | 0.00 | 0.00 | 25 | 1016.7 |
| 20260510001004 | 70 | 171 | 2.0 | 4.0 | 0.00 | 0.00 | 0.00 | 26 | 1016.6 |
| 20260510000507 | 71 | 196 | 1.0 | 4.0 | 0.00 | 0.00 | 0.00 | 23 | 1016.6 |
| 20260510000005 | 71 | 184 | 1.0 | 6.0 | 0.00 | 0.00 | 0.00 | 23 | 1016.5 |
| 20260509235504 | 71 | 155 | 1.0 | 6.0 | 0.00 | 0.00 | 0.00 | 22 | 1016.6 |
| 20260509235004 | 71 | 254 | 1.0 | 5.0 | 0.00 | 0.00 | 0.00 | 22 | 1016.6 |
| 20260509234504 | 70 | 184 | 2.0 | 8.0 | 0.00 | 0.00 | 0.00 | 22 | 1016.7 |
| 20260509234004 | 70 | 203 | 2.0 | 8.0 | 0.00 | 0.00 | 0.00 | 24 | 1016.6 |
| 20260509233505 | 70 | 148 | 2.0 | 7.0 | 0.00 | 0.00 | 0.00 | 23 | 1016.7 |
| 20260509232504 | 71 | 249 | 2.0 | 6.0 | 0.00 | 0.00 | 0.00 | 21 | 1016.7 |
| 20260509232004 | 70 | 178 | 2.0 | 5.0 | 0.00 | 0.00 | 0.00 | 24 | 1016.7 |
| 20260509231505 | 70 | 155 | 2.0 | 10.0 | 0.00 | 0.00 | 0.00 | 23 | 1016.8 |
| 20260509231007 | 70 | 113 | 3.0 | 10.0 | 0.00 | 0.00 | 0.00 | 24 | 1016.8 |
| 20260509230506 | 71 | 186 | 2.0 | 8.0 | 0.00 | 0.00 | 0.00 | 22 | 1016.9 |
| 20260509230005 | 71 | 320 | 2.0 | 7.0 | 0.00 | 0.00 | 0.00 | 23 | 1017.1 |
| 20260509225510 | 70 | 155 | 2.0 | 5.0 | 0.00 | 0.00 | 0.00 | 23 | 1017.1 |
| 20260509225005 | 71 | 117 | 2.0 | 6.0 | 0.00 | 0.00 | 0.00 | 22 | 1017.2 |
| 20260509224504 | 72 | 182 | 2.0 | 7.0 | 0.00 | 0.00 | 0.00 | 21 | 1017.3 |
| 20260509224003 | 71 | 325 | 2.0 | 7.0 | 0.00 | 0.00 | 0.00 | 24 | 1017.2 |
| 20260509223503 | 70 | 329 | 2.0 | 7.0 | 0.00 | 0.00 | 0.00 | 23 | 1017.3 |
| 20260509223003 | 69 | 98 | 2.0 | 7.0 | 0.00 | 0.00 | 0.00 | 24 | 1017.2 |
| 20260509222503 | 69 | 134 | 2.0 | 7.0 | 0.00 | 0.00 | 0.00 | 25 | 1017.3 |
| 20260509222004 | 69 | 215 | 3.0 | 7.0 | 0.00 | 0.00 | 0.00 | 25 | 1017.3 |
| 20260509221502 | 69 | 225 | 2.0 | 7.0 | 0.00 | 0.00 | 0.00 | 25 | 1017.3 |
| 20260509221003 | 69 | 290 | 3.0 | 7.0 | 0.00 | 0.00 | 0.00 | 24 | 1017.4 |
| 20260509220503 | 69 | 151 | 3.0 | 7.0 | 0.00 | 0.00 | 0.00 | 23 | 1017.4 |
| 20260509220003 | 69 | 196 | 3.0 | 7.0 | 0.00 | 0.00 | 0.00 | 25 | 1017.4 |
| 20260509215505 | 69 | 168 | 3.0 | 11.0 | 0.00 | 0.00 | 0.00 | 24 | 1017.4 |
| 20260509214504 | 69 | 133 | 3.0 | 5.0 | 0.00 | 0.00 | 0.00 | 24 | 1017.4 |
| 20260509214003 | 69 | 213 | 3.0 | 5.0 | 0.00 | 0.00 | 0.00 | 25 | 1017.4 |
| 20260509213503 | 70 | 151 | 2.0 | 5.0 | 0.00 | 0.00 | 0.00 | 25 | 1017.5 |
| 20260509213004 | 69 | 126 | 2.0 | 8.0 | 0.00 | 0.00 | 0.00 | 26 | 1017.5 |
| 20260509212002 | 68 | 208 | 4.0 | 11.0 | 0.00 | 0.00 | 0.00 | 23 | 1017.5 |
| 20260509211502 | 68 | 122 | 3.0 | 10.0 | 0.00 | 0.00 | 0.00 | 25 | 1017.6 |
| 20260509211002 | 68 | 107 | 3.0 | 7.0 | 0.00 | 0.00 | 0.00 | 26 | 1017.6 |
| 20260509210503 | 67 | 135 | 3.0 | 7.0 | 0.00 | 0.00 | 0.00 | 25 | 1017.7 |
| 20260509210003 | 67 | 133 | 2.0 | 6.0 | 0.00 | 0.00 | 0.00 | 27 | 1017.7 |
| 20260509205503 | 67 | 116 | 2.0 | 6.0 | 0.00 | 0.00 | 0.00 | 27 | 1017.8 |
| 20260509205002 | 67 | 105 | 3.0 | 5.0 | 0.00 | 0.00 | 0.00 | 26 | 1017.8 |
| 20260509204458 | 68 | 167 | 3.0 | 8.0 | 0.00 | 0.00 | 0.00 | 26 | 1017.8 |
| 20260509203953 | 67 | 244 | 3.0 | 8.0 | 0.00 | 0.00 | 0.00 | 27 | 1017.8 |
| 20260509203445 | 68 | 183 | 2.0 | 7.0 | 0.00 | 0.00 | 0.00 | 27 | 1017.9 |
| 20260509202939 | 68 | 127 | 2.0 | 6.0 | 0.00 | 0.00 | 0.00 | 27 | 1017.9 |
| 20260509202434 | 68 | 109 | 2.0 | 7.0 | 0.00 | 0.00 | 0.00 | 28 | 1017.9 |
| 20260509201434 | 66 | 119 | 2.0 | 5.0 | 0.00 | 0.00 | 0.00 | 27 | 1017.8 |
| 20260509200934 | 66 | 109 | 2.0 | 5.0 | 0.00 | 0.00 | 0.00 | 30 | 1017.8 |
| 20260509200436 | 66 | 150 | 2.0 | 8.0 | 0.00 | 0.00 | 0.00 | 27 | 1017.8 |
| 20260509195935 | 67 | 146 | 3.0 | 8.0 | 0.00 | 0.00 | 0.00 | 25 | 1017.8 |
| 20260509195434 | 66 | 345 | 3.0 | 9.0 | 0.00 | 0.00 | 0.00 | 28 | 1017.8 |
| 20260509194936 | 67 | 134 | 2.0 | 9.0 | 0.00 | 0.00 | 0.00 | 27 | 1017.8 |
| 20260509194434 | 67 | 223 | 2.0 | 4.0 | 0.00 | 0.00 | 0.00 | 26 | 1017.9 |
| 20260509193431 | 66 | 94 | 2.0 | 5.0 | 0.00 | 0.00 | 0.00 | 30 | 1017.9 |
| 20260509192935 | 66 | 60 | 3.0 | 10.0 | 0.00 | 0.00 | 0.00 | 26 | 1017.7 |
| 20260509191933 | 66 | 153 | 2.0 | 5.0 | 0.00 | 0.00 | 0.00 | 29 | 1018.0 |
| 20260509191434 | 65 | 203 | 3.0 | 9.0 | 0.00 | 0.00 | 0.00 | 27 | 1018.1 |
| 20260509190431 | 65 | 136 | 4.0 | 9.0 | 0.00 | 0.00 | 0.00 | 27 | 1018.1 |
| 20260509185933 | 64 | 132 | 3.0 | 9.0 | 0.00 | 0.00 | 0.00 | 30 | 1018.1 |
| 20260509185431 | 64 | 119 | 3.0 | 9.0 | 0.00 | 0.00 | 0.00 | 30 | 1018.0 |
| 20260509184933 | 63 | 9 | 3.0 | 5.0 | 0.00 | 0.00 | 0.00 | 29 | 1018.0 |
| 20260509184431 | 62 | 128 | 4.0 | 7.0 | 0.00 | 0.00 | 0.00 | 30 | 1018.3 |
| 20260509183933 | 62 | 128 | 4.0 | 7.0 | 0.00 | 0.00 | 0.00 | 30 | 1018.1 |
| 20260509182936 | 63 | 159 | 3.0 | 8.0 | 0.00 | 0.00 | 0.00 | 29 | 1018.3 |
| 20260509182433 | 62 | 114 | 3.0 | 8.0 | 0.00 | 0.00 | 0.00 | 30 | 1018.4 |
| 20260509181934 | 63 | 119 | 3.0 | 8.0 | 0.00 | 0.00 | 0.00 | 28 | 1018.4 |
| 20260509180936 | 62 | 136 | 3.0 | 9.0 | 0.00 | 0.00 | 0.00 | 29 | 1018.3 |
| 20260509180431 | 62 | 157 | 3.0 | 9.0 | 0.00 | 0.00 | 0.00 | 29 | 1018.5 |
| 20260509175933 | 62 | 206 | 4.0 | 8.0 | 0.00 | 0.00 | 0.00 | 30 | 1018.5 |
| 20260509175432 | 61 | 123 | 3.0 | 7.0 | 0.00 | 0.00 | 0.00 | 31 | 1018.3 |
| 20260509173933 | 62 | 176 | 3.0 | 10.0 | 0.00 | 0.00 | 0.00 | 29 | 1018.5 |
| 20260509173430 | 62 | 201 | 3.0 | 10.0 | 0.00 | 0.00 | 0.00 | 29 | 1018.5 |
| 20260509172932 | 62 | 38 | 2.0 | 6.0 | 0.00 | 0.00 | 0.00 | 31 | 1018.5 |
| 20260509172430 | 62 | 170 | 2.0 | 7.0 | 0.00 | 0.00 | 0.00 | 31 | 1018.4 |
| 20260509171936 | 62 | 205 | 3.0 | 7.0 | 0.00 | 0.00 | 0.00 | 30 | 1018.4 |
| 20260509171430 | 61 | 145 | 3.0 | 9.0 | 0.00 | 0.00 | 0.00 | 31 | 1018.3 |
| 20260509170937 | 61 | 208 | 3.0 | 9.0 | 0.00 | 0.00 | 0.00 | 29 | 1018.3 |
| 20260509170432 | 60 | 125 | 3.0 | 9.0 | 0.00 | 0.00 | 0.00 | 31 | 1018.3 |
| 20260509165932 | 60 | 123 | 4.0 | 9.0 | 0.00 | 0.00 | 0.00 | 33 | 1018.4 |
| 20260509165431 | 59 | 132 | 4.0 | 9.0 | 0.00 | 0.00 | 0.00 | 31 | 1018.4 |
| 20260509164937 | 60 | 140 | 3.0 | 8.0 | 0.00 | 0.00 | 0.00 | 31 | 1018.3 |
| 20260509164431 | 60 | 152 | 4.0 | 6.0 | 0.00 | 0.00 | 0.00 | 35 | 1018.3 |
| 20260509163933 | 60 | 124 | 4.0 | 9.0 | 0.00 | 0.00 | 0.00 | 36 | 1018.4 |
| 20260509163431 | 59 | 128 | 4.0 | 9.0 | 0.00 | 0.00 | 0.00 | 37 | 1018.4 |
| 20260509162933 | 59 | 268 | 4.0 | 8.0 | 0.00 | 0.00 | 0.00 | 33 | 1018.4 |
| 20260509162431 | 59 | 138 | 4.0 | 8.0 | 0.00 | 0.00 | 0.00 | 34 | 1018.4 |
| 20260509161933 | 59 | 109 | 3.0 | 7.0 | 0.00 | 0.00 | 0.00 | 37 | 1018.4 |
| 20260509161429 | 59 | 0 | 3.0 | 7.0 | 0.00 | 0.00 | 0.00 | 37 | 1018.4 |
| 20260509160932 | 58 | 179 | 4.0 | 10.0 | 0.00 | 0.00 | 0.00 | 39 | 1018.4 |
| 20260509160430 | 58 | 165 | 3.0 | 10.0 | 0.00 | 0.00 | 0.00 | 36 | 1018.4 |
| 20260509155931 | 58 | 132 | 3.0 | 8.0 | 0.00 | 0.00 | 0.00 | 36 | 1018.4 |
| 20260509155429 | 58 | 140 | 4.0 | 9.0 | 0.00 | 0.00 | 0.00 | 38 | 1018.3 |
| 20260509154931 | 58 | 150 | 3.0 | 9.0 | 0.00 | 0.00 | 0.00 | 38 | 1018.4 |
| 20260509154429 | 58 | 142 | 3.0 | 5.0 | 0.00 | 0.00 | 0.00 | 38 | 1018.4 |
| 20260509153934 | 58 | 134 | 3.0 | 5.0 | 0.00 | 0.00 | 0.00 | 36 | 1018.4 |
| 20260509153431 | 57 | 158 | 2.0 | 5.0 | 0.00 | 0.00 | 0.00 | 41 | 1018.4 |
| 20260509152934 | 56 | 165 | 2.0 | 4.0 | 0.00 | 0.00 | 0.00 | 42 | 1018.4 |
| 20260509152428 | 56 | 191 | 2.0 | 4.0 | 0.00 | 0.00 | 0.00 | 45 | 1018.4 |
| 20260509151933 | 56 | 181 | 1.0 | 5.0 | 0.00 | 0.00 | 0.00 | 43 | 1018.4 |
| 20260509151429 | 56 | 241 | 1.0 | 5.0 | 0.00 | 0.00 | 0.00 | 43 | 1018.3 |
| 20260509150932 | 56 | 211 | 1.0 | 4.0 | 0.00 | 0.00 | 0.00 | 43 | 1018.3 |
| 20260509150428 | 56 | 207 | 1.0 | 5.0 | 0.00 | 0.00 | 0.00 | 43 | 1018.1 |
| 20260509145428 | 55 | 221 | 3.0 | 7.0 | 0.00 | 0.00 | 0.00 | 43 | 1018.0 |
| 20260509144926 | 55 | 222 | 3.0 | 7.0 | 0.00 | 0.00 | 0.00 | 42 | 1017.9 |
| 20260509144426 | 54 | 208 | 2.0 | 6.0 | 0.00 | 0.00 | 0.00 | 44 | 1018.0 |
| 20260509143926 | 54 | 207 | 2.0 | 4.0 | 0.00 | 0.00 | 0.00 | 46 | 1017.9 |
| 20260509143426 | 54 | 209 | 1.0 | 4.0 | 0.00 | 0.00 | 0.00 | 50 | 1017.8 |
| 20260509142926 | 53 | 0 | 1.0 | 2.0 | 0.00 | 0.00 | 0.00 | 56 | 1017.8 |
| 20260509142425 | 53 | 0 | 1.0 | 2.0 | 0.00 | 0.00 | 0.00 | 58 | 1017.8 |
| 20260509141924 | 53 | 173 | 1.0 | 2.0 | 0.00 | 0.00 | 0.00 | 64 | 1017.8 |
| 20260509140925 | 51 | 0 | 0.0 | 2.0 | 0.00 | 0.00 | 0.00 | 65 | 1017.6 |
| 20260509140422 | 51 | 0 | 0.0 | 1.0 | 0.00 | 0.00 | 0.00 | 65 | 1017.6 |
| 20260509135922 | 50 | 186 | 0.0 | 2.0 | 0.00 | 0.00 | 0.00 | 65 | 1017.6 |
| 20260509135422 | 50 | 0 | 0.0 | 2.0 | 0.00 | 0.00 | 0.00 | 66 | 1017.5 |
| 20260509134422 | 49 | 0 | 0.0 | 1.0 | 0.00 | 0.00 | 0.00 | 69 | 1017.4 |
| 20260509132922 | 48 | 0 | 0.0 | 3.0 | 0.00 | 0.00 | 0.00 | 69 | 1017.2 |
| 20260509132418 | 48 | 0 | 1.0 | 3.0 | 0.00 | 0.00 | 0.00 | 69 | 1017.3 |
| 20260509131918 | 48 | 0 | 0.0 | 2.0 | 0.00 | 0.00 | 0.00 | 69 | 1017.2 |
| 20260509131418 | 48 | 0 | 0.0 | 0.0 | 0.00 | 0.00 | 0.00 | 67 | 1016.9 |
| 20260509130919 | 48 | 0 | 0.0 | 0.0 | 0.00 | 0.00 | 0.00 | 68 | 1017.1 |
| 20260509130417 | 48 | 0 | 0.0 | 1.0 | 0.00 | 0.00 | 0.00 | 67 | 1016.8 |
| 20260509125921 | 49 | 0 | 0.0 | 1.0 | 0.00 | 0.00 | 0.00 | 67 | 1016.7 |
| 20260509125423 | 49 | 0 | 0.0 | 2.0 | 0.00 | 0.00 | 0.00 | 67 | 1016.6 |
| 20260509124921 | 49 | 0 | 0.0 | 2.0 | 0.00 | 0.00 | 0.00 | 68 | 1016.5 |
| 20260509123918 | 49 | 0 | 0.0 | 1.0 | 0.00 | 0.00 | 0.00 | 66 | 1016.4 |
| 20260509123417 | 49 | 0 | 0.0 | 0.0 | 0.00 | 0.00 | 0.00 | 66 | 1016.4 |
| 20260509122919 | 49 | 0 | 0.0 | 0.0 | 0.00 | 0.00 | 0.00 | 67 | 1016.4 |
| 20260509122414 | 49 | 0 | 1.0 | 3.0 | 0.00 | 0.00 | 0.00 | 67 | 1016.3 |
| 20260509121914 | 49 | 0 | 2.0 | 5.0 | 0.00 | 0.00 | 0.00 | 68 | 1016.3 |
| 20260509120413 | 50 | 0 | 2.0 | 3.0 | 0.00 | 0.00 | 0.00 | 64 | 1016.3 |
| 20260509114911 | 51 | 219 | 1.0 | 3.0 | 0.00 | 0.00 | 0.00 | 53 | 1016.1 |
| 20260509113909 | 51 | 217 | 1.0 | 3.0 | 0.00 | 0.00 | 0.00 | 54 | 1016.0 |
| 20260509113409 | 52 | 214 | 0.0 | 2.0 | 0.00 | 0.00 | 0.00 | 55 | 1015.9 |
| 20260509112910 | 52 | 213 | 1.0 | 2.0 | 0.00 | 0.00 | 0.00 | 54 | 1015.9 |
| 20260509112410 | 53 | 213 | 1.0 | 2.0 | 0.00 | 0.00 | 0.00 | 52 | 1015.9 |
| 20260509111909 | 53 | 213 | 2.0 | 4.0 | 0.00 | 0.00 | 0.00 | 48 | 1015.7 |
| 20260509111410 | 53 | 214 | 2.0 | 5.0 | 0.00 | 0.00 | 0.00 | 47 | 1015.7 |
| 20260509110905 | 53 | 215 | 2.0 | 5.0 | 0.00 | 0.00 | 0.00 | 48 | 1015.7 |
| 20260509110405 | 53 | 214 | 2.0 | 4.0 | 0.00 | 0.00 | 0.00 | 48 | 1015.5 |
| 20260509105905 | 53 | 214 | 2.0 | 5.0 | 0.00 | 0.00 | 0.00 | 49 | 1015.5 |
| 20260509105406 | 53 | 211 | 2.0 | 5.0 | 0.00 | 0.00 | 0.00 | 49 | 1015.6 |
| 20260509104404 | 53 | 238 | 2.0 | 4.0 | 0.00 | 0.00 | 0.00 | 50 | 1015.5 |
| 20260509103903 | 52 | 250 | 1.0 | 3.0 | 0.00 | 0.00 | 0.00 | 54 | 1015.5 |
| 20260509103404 | 52 | 250 | 1.0 | 3.0 | 0.00 | 0.00 | 0.00 | 52 | 1015.4 |
| 20260509102905 | 52 | 252 | 0.0 | 3.0 | 0.00 | 0.00 | 0.00 | 52 | 1015.4 |
| 20260509102403 | 52 | 257 | 1.0 | 3.0 | 0.00 | 0.00 | 0.00 | 53 | 1015.4 |
| 20260509101906 | 52 | 257 | 1.0 | 3.0 | 0.00 | 0.00 | 0.00 | 54 | 1015.4 |
| 20260509101406 | 52 | 257 | 1.0 | 3.0 | 0.00 | 0.00 | 0.00 | 54 | 1015.4 |
| 20260509100905 | 52 | 257 | 0.0 | 3.0 | 0.00 | 0.00 | 0.00 | 57 | 1015.4 |
| 20260509100406 | 52 | 261 | 1.0 | 2.0 | 0.00 | 0.00 | 0.00 | 53 | 1015.3 |